Location: São Paulo
(23.5507°S, 46.6334°W)
Time: 09:47:08
(UTC-03:00)

Transit 4A - Pass Details

Date: 18 February 2026
Orbit: 864 x 977 km, 66.8° (Epoch: 11 March)

Event Time Altitude Azimuth Distance (km) Brightness Sun altitude
Rises 15:26:45 0° 321° (NW) 3,661 11.5 44.2°
Reaches altitude 10° 15:29:27 10° 314° (NW) 2,716 11.1 43.6°
Maximum altitude 15:35:25 42° 244° (WSW) 1,356 10.3 42.2°
Drops below altitude 10° 15:41:21 10° 174° (S) 2,692 10.3 40.8°
Sets 15:44:03 0° 167° (SSE) 3,626 10.8 40.2°
